This is the latest recevied weather packets stored in our database for station/object VA7IS. If no packets are shown the sender has not sent any weather packets the latest 10 day(s).
| Time | Temp. | Humidity | Pressure | Rain* | Wind** | Luminosity | Snow |
|---|---|---|---|---|---|---|---|
| 1778236803 | 12.78° C | 17% | 1014.7 hPa | 0 mm | - | - | - |
| 1778235604 | 12.78° C | 20% | 1014.7 hPa | 0 mm | - | - | - |
| 1778233505 | 12.78° C | 23% | 1014.5 hPa | 0 mm | - | - | - |
| 1778232904 | 12.78° C | 23% | 1014.5 hPa | 0 mm | - | - | - |
| 1778229604 | 12.78° C | 20% | 1014.7 hPa | 0 mm | - | - | - |
| 1778227805 | 12.78° C | 11% | 1014.7 hPa | 0 mm | - | - | - |
| 1778224804 | 12.78° C | 15% | 1015.1 hPa | 0 mm | - | - | - |
| 1778222705 | 13.89° C | 36% | 1015.3 hPa | 0 mm | - | - | - |
| 1778221804 | 14.44° C | 40% | 1015.2 hPa | 0 mm | - | - | - |
| 1778217604 | 15° C | 46% | 1014.9 hPa | 0 mm | - | - | - |
| 1778216104 | 15° C | 49% | 1015.2 hPa | 0 mm | - | - | - |
| 1778214905 | 15° C | 51% | 1015.2 hPa | 0 mm | - | - | - |
| 1778214305 | 15° C | 52% | 1015.3 hPa | 0 mm | - | - | - |
| 1778213705 | 15.56° C | 53% | 1015.3 hPa | 0 mm | - | - | - |
| 1778212204 | 16.11° C | 54% | 1015 hPa | 0 mm | - | - | - |
| 1778209804 | 16.67° C | 55% | 1014.9 hPa | 0 mm | - | - | - |
| 1778204105 | 17.78° C | 56% | 1015.3 hPa | 0 mm | - | - | - |
| 1778202005 | 17.78° C | 56% | 1015.6 hPa | 0 mm | - | - | - |
| 1778195404 | 18.33° C | 55% | 1015.9 hPa | 0 mm | - | - | - |
| 1778194804 | 19.44° C | 55% | 1016 hPa | 0 mm | - | - | - |
| 1778190604 | 18.33° C | 55% | 1016.6 hPa | 0 mm | - | - | - |
| 1778186704 | 18.89° C | 55% | 1017.5 hPa | 0 mm | - | - | - |
| 1778184904 | 16.67° C | 54% | 1017.7 hPa | 0 mm | - | - | - |
| 1778183704 | 17.22° C | 53% | 1017.9 hPa | 0 mm | - | - | - |
| 1778183404 | 16.67° C | 54% | 1017.9 hPa | 0 mm | - | - | - |
* Rain latest hour (hover to see other rain measurements)
** Current wind speed in m/s (hover to see current wind gust speed)